Location: Ar Ranvel
(48.3000°N, 4.8833°W)
Time: 03:46:58
(UTC+00:00)

Cosmos 2322 Rocket - Pass Details

Date: 28 October 2021
Orbit: 832 x 851 km, 71.0° (Epoch: 01 December)

Event Time Altitude Azimuth Distance (km) Brightness Sun altitude
Rises 20:33:23 0° 273° (W) 3,380 6.3 -34.6°
Reaches altitude 10° 20:37:17 10° 300° (WNW) 2,452 5.4 -35.2°
Maximum altitude 20:39:55 13° 328° (NNW) 2,227 4.9 -35.6°
Drops below altitude 10° 20:42:35 10° 357° (N) 2,461 4.8 -36.0°
Enters shadow 20:43:43 - 6° (N) 2,682 5.0 -36.2°
